Volver al catálogo

STARLINK-11668

ActivoComunicacionesVLEO
NORAD 63557·PAYLOAD·🇺🇸 United States

Lanzado Apr 13, 2025 desde Cape Canaveral Space Force Station

Loading…

Próximos Pases (próximas 24 horas)

TLE

ActualizadoSource: CelesTrak SupGP

Época: Sep 15, 2026, 03:24 UTC

1 63557C 25075K   26258.14215278  .00005141  00000+0  39887-4 0  2585
2 63557  43.0004  92.1528 0001846 273.0665 355.9266 15.70858636    10

Sigue STARLINK-11668 en tiempo real con AllMySat

Download on the App Store